Location: Belfast
(54.5830°N, 5.9330°W)
Time: 14:06:54
(UTC+01:00)

ISS - Pass Details

Date: 22 May 2017
Orbit: 402 x 408 km, 51.6° (Epoch: 26 May)

Event Time Altitude Azimuth Distance (km) Brightness Sun altitude
Rises 04:13:47 0° 275° (W) 2,331 -0.3 -6.4°
Reaches altitude 10° 04:16:00 10° 265° (W) 1,468 -1.4 -6.2°
Maximum altitude 04:18:57 31° 201° (SSW) 739 -3.0 -5.9°
Drops below altitude 10° 04:21:53 10° 137° (SE) 1,459 -1.0 -5.6°
Sets 04:24:05 0° 127° (SE) 2,315 0.1 -5.4°
